Location: Hurecourt
(47.9030°N, 6.0653°E)
Time: 03:49:38
(UTC+00:00)

Meteor 1-19 Rocket - Pass Details

Date: 14 July 2020
Orbit: 811 x 924 km, 81.2° (Epoch: 06 August)

Event Time Altitude Azimuth Distance (km) Brightness Sun altitude
Rises 01:16:17 0° 344° (NNW) 3,452 8.2 -17.3°
Reaches altitude 10° 01:18:47 10° 341° (NNW) 2,494 7.3 -17.1°
Maximum altitude 01:24:16 55° 265° (W) 1,004 4.4 -16.8°
Enters shadow 01:27:07 27° 200° (SSW) 1,548 5.0 -16.6°
